珠海一号 03E星 (ZHUHAI-1 03E)

导读

ZHUHAI-1 03E是中国于2019年9月19日发射的珠海一号卫星星座组网卫星,由欧比特宇航科技自主发射运营。作为商业高光谱遥感微纳卫星,它具备2.5nm高光谱分辨率,可精准捕捉地物光谱特征,服务全球遥感监测。它与星座其他卫星协同,实现高频率重访覆盖,可支撑国土资源、农林监测、环境保护、智慧城市等多领域应用,是中国民营商业航天遥感星座的重要组成。

Basic Information
目录编号:
44539
目录名称:
ZHUHAI-1 03E
国际标识:
2019-060F
轨道中心:
EARTH
卫星名称:
珠海一号 03E星
卫星全名:
珠海一号 03E星 (ZHUHAI-1 03E)
卫星状态:
在轨 (已飞行2543 天)
发射日期:
2019-09-19 UTC
国别 :
中国 (CN)
星等 :
--
Orbit Information
数据来源 国际轨道数据
星历时间: 2026-09-05T13:49:37+0800
7小时前
查看轨道信息
半长轴: 6814.137km
偏心率: 0.0006757
轨道倾角: 97.571°
近地点辐角 93.634°
升交点赤经 41.165°
平近点角 266.568°
近地点: 431.395km
远地点: 440.605km
周期: 93.299分钟
每日圈数: 15.434284
Detailed Information
平衡模式:
三轴稳定
覆盖范围:
全球
运营商:
珠海欧比特宇航科技股份有限公司
运营商所在国:
中国
制造商(研发单位):
珠海欧比特宇航科技股份有限公司
制造商所在国:
中国
使用方式:
暂无
Satellite Introduction
珠海一号(Zhuhai-1)卫星星座是由珠海欧比特宇航科技股份有限公司发射并运营的商业遥感微纳卫星星座,整个星座由34颗遥感卫星组成,分别是2颗视频试验卫星、10颗视频卫星、10颗高光谱卫星、2颗高分光学卫星、2颗SAR卫星和8颗红外卫星。该卫星仍在工作。
2D Orbit Map
3D Orbit Map
Orbit Altitude Analysis Chart
Orbit Inclination Analysis Chart
Orbit Comprehensive Analysis Chart
View Comprehensive Chart
Conjunction Data List
Event ID Objects TCA Miss Dist (km) Collision Risk Probability Collision Risk Index (CRI) Action
CDM_260907-095704-453906-488523
OBJECT K (64885)
2026-09-07T
09:57:33+0000
2.436 km
极远距离
1.868452E-6 低风险 0.4
CDM_260905-191504-453906-411522
2026-09-05T
19:15:10+0000
2.412 km
极远距离
1.807496E-6 低风险 0.4
CDM_260906-204704-453906-430222
2026-09-06T
20:47:29+0000
2.541 km
极远距离
7.838639E-7 极低风险 0.33